This is the latest recevied weather packets stored in our database for station/object KC4JES. If no packets are shown the sender has not sent any weather packets the latest 1 day(s).
| Time | Temp. | Humidity | Pressure | Rain* | Wind** | Luminosity | Snow |
|---|---|---|---|---|---|---|---|
| 1778036398 | 20° C | 77% | 1017.1 hPa | 0 mm | - | 0 W/m² | - |
| 1778036095 | 20.56° C | 75% | 1016.9 hPa | 0 mm | - | 0 W/m² | - |
| 1778035488 | 21.11° C | 73% | 1017 hPa | 0 mm | - | 0 W/m² | - |
| 1778035184 | 21.67° C | 72% | 1016.8 hPa | 0 mm | - | 0 W/m² | - |
| 1778034881 | 21.67° C | 72% | 1016.9 hPa | 0 mm | - | 0 W/m² | - |
| 1778034578 | 21.67° C | 72% | 1016.8 hPa | 0 mm | - | 0 W/m² | - |
| 1778033670 | 21.67° C | 72% | 1016.8 hPa | 0 mm | - | 0 W/m² | - |
| 1778033367 | 21.11° C | 72% | 1016.9 hPa | 0 mm | - | 0 W/m² | - |
| 1778033065 | 21.11° C | 72% | 1016.9 hPa | 0 mm | - | 0 W/m² | - |
| 1778032762 | 21.11° C | 72% | 1016.8 hPa | 0 mm | - | 0 W/m² | - |
| 1778032460 | 21.11° C | 71% | 1016.9 hPa | 0 mm | - | 0 W/m² | - |
| 1778032156 | 21.11° C | 70% | 1016.8 hPa | 0 mm | - | 0 W/m² | - |
| 1778031853 | 21.11° C | 70% | 1016.8 hPa | 0 mm | - | 0 W/m² | - |
| 1778031550 | 21.11° C | 69% | 1016.6 hPa | 0 mm | - | 0 W/m² | - |
| 1778031248 | 21.11° C | 68% | 1016.8 hPa | 0 mm | - | 0 W/m² | - |
| 1778030035 | 21.67° C | 65% | 1016.8 hPa | 0 mm | - | 0 W/m² | - |
| 1778029732 | 21.67° C | 64% | 1016.9 hPa | 0 mm | - | 0 W/m² | - |
| 1778029430 | 21.67° C | 63% | 1016.6 hPa | 0 mm | - | 0 W/m² | - |
| 1778028519 | 21.67° C | 63% | 1016.7 hPa | 0 mm | - | 0 W/m² | - |
| 1778028217 | 21.67° C | 64% | 1016.7 hPa | 0 mm | - | 0 W/m² | - |
| 1778027913 | 21.67° C | 64% | 1016.6 hPa | 0 mm | - | 0 W/m² | - |
| 1778027609 | 22.22° C | 63% | 1016.5 hPa | 0 mm | - | 0 W/m² | - |
| 1778027306 | 22.22° C | 63% | 1016.5 hPa | 0 mm | - | 0 W/m² | - |
| 1778026698 | 22.22° C | 61% | 1016.4 hPa | 0 mm | - | 0 W/m² | - |
| 1778024579 | 22.78° C | 60% | 1016.2 hPa | 0 mm | - | 9 W/m² | - |
* Rain latest hour (hover to see other rain measurements)
** Current wind speed in m/s (hover to see current wind gust speed)